Darstellungsparameter: Aktuell verwendete Einstellungen:
Skalierung der Graphiken ... ?
xyx+y,   Skalierungsfaktor:      Skalierung: Modus: x, Faktor: 1
Darstellungszeitraum ... ?
Vom - - bis: - -   Zeitraum: 30.03.2020 - 03.04.2020
Min/Max/Avg-Anzeige ... ?
Zeige MMA aktuell
Zeige MMA Monat
Zeige MMA alles
Zeige --A aktuell
Zeige --A Monat
Zeige --A alles
Keine MMA-Anzeige
MMA:
Keine MMA-Graphiken
MMA-Basis: 30.03.2020 - 03.04.2020
Quicknavigation für Darstellung... ?
Tage:      1T, 2T, 3T, 5T -1T -2T -3T -5T +1T +2T +3T +5T
Wochen: 1W, 2W, 3W -1W -2W -3W +1W +2W +3W
Monate: 1M, 3M, 6M -1M -3M -6M +1M +3M +6M
Jahre:    1J, 3J, 5J, 10J -1J -3J -5J -10J +1J +3J +5J +10J
Nutze für die Darstellung ... ?
Originaldaten oder Mittelwerte auf ...
Stundenbasis Tagesbasis Wochenbasis
Monatsbasis Jahresbasis      Datenbasis: Original-Daten
Darstellen als:
Statistik (Auto) Statistik J:M      Darstellung:
Zur Graphik,    zurück zur Übersicht aller Sensoren.
 
Tabellarische Datenbersicht: ?
 
Sensor: Nr:Datum:Temp:Feuchte:
Aussen-T/F 1 30-03-2020 00:00:18 2.5 C 34 %
2 30-03-2020 00:10:18 2.4 C 33 %
3 30-03-2020 00:20:17 2.4 C 33 %
4 30-03-2020 00:30:17 1.7 C 35 %
5 30-03-2020 00:40:17 1 C 36 %
6 30-03-2020 00:50:17 0.3 C 38 %
7 30-03-2020 01:00:18 0.2 C 38 %
8 30-03-2020 01:10:18 0.3 C 38 %
9 30-03-2020 01:20:17 0.3 C 37 %
10 30-03-2020 01:30:18 0.5 C 36 %
11 30-03-2020 01:40:18 -0.1 C 37 %
12 30-03-2020 01:50:17 -0.3 C 37 %
13 30-03-2020 02:00:17 -0.8 C 38 %
14 30-03-2020 02:10:17 -0.9 C 38 %
15 30-03-2020 02:20:17 -1.5 C 39 %
16 30-03-2020 02:30:18 -1.7 C 39 %
17 30-03-2020 02:40:18 -1.6 C 40 %
18 30-03-2020 02:50:17 -1.6 C 39 %
19 30-03-2020 03:00:18 -1.7 C 39 %
20 30-03-2020 03:10:18 -1.3 C 38 %
21 30-03-2020 03:20:18 -1.7 C 39 %
22 30-03-2020 03:30:18 -2.2 C 40 %
23 30-03-2020 03:40:18 -2.1 C 40 %
24 30-03-2020 03:50:17 -2.1 C 40 %
25 30-03-2020 04:00:18 -1.9 C 39 %
Sensor: Nr:Datum:Temp:Feuchte:
Aussen-T/F 26 30-03-2020 04:10:18 -2.2 C 39 %
27 30-03-2020 04:20:17 -2 C 39 %
28 30-03-2020 04:30:17 -2.4 C 39 %
29 30-03-2020 04:40:17 -2.6 C 39 %
30 30-03-2020 04:50:17 -2.4 C 39 %
31 30-03-2020 05:00:17 -2.4 C 38 %
32 30-03-2020 05:10:17 -2.5 C 38 %
33 30-03-2020 05:20:17 -2.7 C 38 %
34 30-03-2020 05:30:18 -3 C 39 %
35 30-03-2020 05:40:18 -3 C 38 %
36 30-03-2020 05:50:17 -3 C 38 %
37 30-03-2020 06:00:18 -3 C 38 %
38 30-03-2020 06:10:18 -3.4 C 38 %
39 30-03-2020 06:20:17 -3.7 C 39 %
40 30-03-2020 06:30:17 -3.9 C 40 %
41 30-03-2020 06:40:17 -4.1 C 40 %
42 30-03-2020 06:50:17 -3.3 C 39 %
43 30-03-2020 07:00:17 -3.7 C 40 %
44 30-03-2020 07:10:17 -3.2 C 39 %
45 30-03-2020 07:20:17 -3.8 C 39 %
46 30-03-2020 07:30:18 -4.3 C 40 %
47 30-03-2020 07:40:18 -4.5 C 40 %
48 30-03-2020 07:50:17 -4.5 C 40 %
49 30-03-2020 08:00:18 -3.8 C 40 %
50 30-03-2020 08:10:18 -3.9 C 40 %
Sensor: Nr:Datum:Temp:Feuchte:
Aussen-T/F 51 30-03-2020 08:20:18 -4.1 C 40 %
52 30-03-2020 08:30:18 -3.7 C 39 %
53 30-03-2020 08:40:18 -3.3 C 39 %
54 30-03-2020 08:50:17 -3.2 C 38 %
55 30-03-2020 09:00:18 -3.1 C 38 %
56 30-03-2020 09:10:18 -2.7 C 37 %
57 30-03-2020 09:20:18 -2.6 C 37 %
58 30-03-2020 09:30:18 -2.5 C 37 %
59 30-03-2020 09:40:18 -2.1 C 37 %
60 30-03-2020 09:50:18 -2.1 C 37 %
61 30-03-2020 10:00:18 -1.6 C 36 %
62 30-03-2020 10:10:18 -1.7 C 37 %
63 30-03-2020 10:20:17 -1.5 C 37 %
64 30-03-2020 10:30:17 -1.3 C 36 %
65 30-03-2020 10:40:17 0.1 C 31 %
66 30-03-2020 10:50:17 1 C 21 %
67 30-03-2020 11:00:17 1.1 C 23 %
68 30-03-2020 11:10:18 2 C 20 %
69 30-03-2020 11:20:18 2.4 C 20 %
70 30-03-2020 11:30:18 2.8 C 20 %
71 30-03-2020 11:40:18 2.9 C 20 %
72 30-03-2020 11:50:18 3.2 C 20 %
73 30-03-2020 12:00:18 3.7 C 20 %
74 30-03-2020 12:10:18 4 C 20 %
75 30-03-2020 12:20:18 6.4 C 20 %
Sensor: Nr:Datum:Temp:Feuchte:
Aussen-T/F 76 30-03-2020 12:30:18 7.6 C 20 %
77 30-03-2020 12:40:18 6.3 C 20 %
78 30-03-2020 12:50:18 5.1 C 20 %
79 30-03-2020 13:00:18 6.6 C 20 %
80 30-03-2020 13:10:18 6.5 C 20 %
81 30-03-2020 13:20:18 5.6 C 20 %
82 30-03-2020 13:30:17 5.9 C 20 %
83 30-03-2020 13:40:17 7 C 20 %
84 30-03-2020 13:50:17 6.4 C 20 %
85 30-03-2020 14:00:17 7.1 C 20 %
86 30-03-2020 14:10:17 8.4 C 20 %
87 30-03-2020 14:20:18 8.9 C 20 %
88 30-03-2020 14:30:18 9.5 C 20 %
89 30-03-2020 14:40:18 9.7 C 20 %
90 30-03-2020 14:50:18 10.8 C 20 %
91 30-03-2020 15:00:18 11.3 C 20 %
92 30-03-2020 15:10:18 11.7 C 20 %
93 30-03-2020 15:20:17 11.6 C 20 %
94 30-03-2020 15:30:18 13.5 C 20 %
95 30-03-2020 15:40:18 13.6 C 20 %
96 30-03-2020 15:50:18 11.9 C 20 %
97 30-03-2020 16:00:18 12.9 C 20 %
98 30-03-2020 16:10:18 13.6 C 20 %
99 30-03-2020 16:20:17 15.2 C 20 %
100 30-03-2020 16:30:18 9.9 C 20 %
Sensor: Nr:Datum:Temp:Feuchte:
Aussen-T/F 101 30-03-2020 16:40:18 13.9 C 20 %
102 30-03-2020 16:50:18 13.6 C 20 %
103 30-03-2020 17:00:17 10.1 C 20 %
104 30-03-2020 17:10:17 13.4 C 20 %
105 30-03-2020 17:20:18 12.5 C 20 %
106 30-03-2020 17:30:18 12.6 C 20 %
107 30-03-2020 17:40:18 11.6 C 20 %
108 30-03-2020 17:50:18 10.2 C 20 %
109 30-03-2020 18:00:18 8.7 C 20 %
110 30-03-2020 18:10:18 7.6 C 20 %
111 30-03-2020 18:20:18 7.9 C 20 %
112 30-03-2020 18:30:18 8.2 C 20 %
113 30-03-2020 18:40:18 7.7 C 20 %
114 30-03-2020 18:50:18 7.8 C 20 %
115 30-03-2020 19:00:18 7.3 C 20 %
116 30-03-2020 19:10:18 7.1 C 20 %
117 30-03-2020 19:20:17 6.5 C 20 %
118 30-03-2020 19:30:18 6.3 C 20 %
119 30-03-2020 19:40:18 5.8 C 20 %
120 30-03-2020 19:50:17 5 C 20 %
121 30-03-2020 20:00:18 3.8 C 27 %
122 30-03-2020 20:10:18 3 C 30 %
123 30-03-2020 20:20:17 2.8 C 30 %
124 30-03-2020 20:30:18 3.3 C 31 %
125 30-03-2020 20:40:18 3.2 C 30 %
Sensor: Nr:Datum:Temp:Feuchte:
Aussen-T/F 126 30-03-2020 20:50:18 3.3 C 31 %
127 30-03-2020 21:00:18 4 C 29 %
128 30-03-2020 21:10:18 4.1 C 29 %
129 30-03-2020 21:20:18 4.2 C 30 %
130 30-03-2020 21:30:18 4.3 C 30 %
131 30-03-2020 21:40:18 4.2 C 30 %
132 30-03-2020 21:50:18 4.1 C 30 %
133 30-03-2020 22:00:18 3.7 C 32 %
134 30-03-2020 22:10:18 3.7 C 33 %
135 30-03-2020 22:20:17 3.9 C 32 %
136 30-03-2020 22:30:18 4 C 31 %
137 30-03-2020 22:40:18 4.1 C 31 %
138 30-03-2020 22:50:18 4.2 C 31 %
139 30-03-2020 23:00:18 4.1 C 31 %
140 30-03-2020 23:10:18 4.2 C 30 %
141 30-03-2020 23:20:18 4.2 C 31 %
142 30-03-2020 23:30:18 4.1 C 31 %
143 30-03-2020 23:40:18 4.2 C 31 %
144 30-03-2020 23:50:17 4.2 C 31 %
145 31-03-2020 00:00:18 4.3 C 30 %
146 31-03-2020 00:10:18 4.3 C 30 %
147 31-03-2020 00:20:18 4.2 C 31 %
148 31-03-2020 00:30:18 4.2 C 31 %
149 31-03-2020 00:40:18 4.2 C 31 %
150 31-03-2020 00:50:18 4.3 C 31 %
Sensor: Nr:Datum:Temp:Feuchte:
Aussen-T/F 151 31-03-2020 01:00:18 4.4 C 32 %
152 31-03-2020 01:10:18 4 C 34 %
153 31-03-2020 01:20:18 3.8 C 36 %
154 31-03-2020 01:30:18 3.8 C 36 %
155 31-03-2020 01:40:18 3.7 C 37 %
156 31-03-2020 01:50:18 4 C 37 %
157 31-03-2020 02:00:18 3.9 C 38 %
158 31-03-2020 02:10:18 3.4 C 39 %
159 31-03-2020 02:20:17 3.5 C 39 %
160 31-03-2020 02:30:18 3.7 C 39 %
161 31-03-2020 02:40:18 3.3 C 40 %
162 31-03-2020 02:50:18 2.8 C 41 %
163 31-03-2020 03:00:18 2.5 C 41 %
164 31-03-2020 03:10:18 2.2 C 42 %
165 31-03-2020 03:20:17 2.4 C 42 %
166 31-03-2020 03:30:18 2.3 C 42 %
167 31-03-2020 03:40:18 2.3 C 43 %
168 31-03-2020 03:50:18 2.7 C 43 %
169 31-03-2020 04:00:18 2.9 C 42 %
170 31-03-2020 04:10:18 3 C 42 %
171 31-03-2020 04:20:18 3.1 C 42 %
172 31-03-2020 04:30:17 3.2 C 42 %
173 31-03-2020 04:40:18 3.2 C 41 %
174 31-03-2020 04:50:17 3.5 C 41 %
175 31-03-2020 05:00:18 3.4 C 41 %
Sensor: Nr:Datum:Temp:Feuchte:
Aussen-T/F 176 31-03-2020 05:10:18 3 C 41 %
177 31-03-2020 05:20:17 2.8 C 43 %
178 31-03-2020 05:30:18 2.5 C 43 %
179 31-03-2020 05:40:18 2.3 C 43 %
180 31-03-2020 05:50:18 1.9 C 44 %
181 31-03-2020 06:00:18 1.7 C 44 %
182 31-03-2020 06:10:18 1.6 C 45 %
183 31-03-2020 06:20:18 1.5 C 45 %
184 31-03-2020 06:30:18 1.7 C 45 %
185 31-03-2020 06:40:18 2 C 45 %
186 31-03-2020 06:50:18 2.1 C 45 %
187 31-03-2020 07:00:18 2.2 C 45 %
188 31-03-2020 07:10:18 2.3 C 45 %
189 31-03-2020 07:20:18 2.2 C 44 %
190 31-03-2020 07:30:18 2.1 C 44 %
191 31-03-2020 07:40:18 1.7 C 45 %
192 31-03-2020 07:50:17 2 C 45 %
193 31-03-2020 08:00:18 2.5 C 45 %
194 31-03-2020 08:10:18 3.1 C 43 %
195 31-03-2020 08:20:18 3.3 C 42 %
196 31-03-2020 08:30:18 3.5 C 41 %
197 31-03-2020 08:40:18 3.7 C 40 %
198 31-03-2020 08:50:17 4 C 38 %
199 31-03-2020 09:00:18 3.9 C 38 %
200 31-03-2020 09:10:18 3.9 C 37 %
Sensor: Nr:Datum:Temp:Feuchte:
Aussen-T/F 201 31-03-2020 09:20:18 4 C 36 %
202 31-03-2020 09:30:17 4 C 36 %
203 31-03-2020 09:40:17 4.1 C 35 %
204 31-03-2020 09:50:18 4.3 C 35 %
205 31-03-2020 10:00:18 4.8 C 34 %
206 31-03-2020 10:10:18 4.7 C 34 %
207 31-03-2020 10:20:18 4.5 C 34 %
208 31-03-2020 10:30:18 4.4 C 34 %
209 31-03-2020 10:40:18 4.3 C 34 %
210 31-03-2020 10:50:17 4.3 C 33 %
211 31-03-2020 11:00:17 4.3 C 33 %
212 31-03-2020 11:10:17 4.4 C 32 %
213 31-03-2020 11:20:18 4.7 C 31 %
214 31-03-2020 11:30:18 5.4 C 30 %
215 31-03-2020 11:40:18 5.3 C 30 %
216 31-03-2020 11:50:17 5.3 C 29 %
217 31-03-2020 12:00:18 5.6 C 27 %
218 31-03-2020 12:10:18 6.3 C 25 %
219 31-03-2020 12:20:17 6.4 C 20 %
220 31-03-2020 12:30:18 9.2 C 20 %
221 31-03-2020 12:40:18 8.4 C 20 %
222 31-03-2020 12:50:18 7 C 20 %
223 31-03-2020 13:00:17 7.5 C 20 %
224 31-03-2020 13:10:17 7.1 C 20 %
225 31-03-2020 13:20:17 7.3 C 20 %
Sensor: Nr:Datum:Temp:Feuchte:
Aussen-T/F 226 31-03-2020 13:30:17 7 C 20 %
227 31-03-2020 13:40:17 8.1 C 20 %
228 31-03-2020 13:51:17 8.4 C 20 %
229 31-03-2020 14:00:17 8.5 C 20 %
230 31-03-2020 14:10:17 9.7 C 20 %
231 31-03-2020 14:20:17 11.2 C 20 %
232 31-03-2020 14:30:17 12.6 C 20 %
233 31-03-2020 14:40:17 11.7 C 20 %
234 31-03-2020 14:51:17 12 C 20 %
235 31-03-2020 15:00:17 12 C 20 %
236 31-03-2020 15:10:18 13.1 C 20 %
237 31-03-2020 15:20:17 13.2 C 20 %
238 31-03-2020 15:30:17 13.5 C 20 %
239 31-03-2020 15:40:17 14.6 C 20 %
240 31-03-2020 15:50:18 13.9 C 20 %
241 31-03-2020 16:00:17 16.8 C 20 %
242 31-03-2020 16:10:17 14.8 C 20 %
243 31-03-2020 16:20:17 15.8 C 20 %
244 31-03-2020 16:31:17 15.1 C 20 %
245 31-03-2020 16:40:17 14 C 20 %
246 31-03-2020 16:50:17 13.3 C 20 %
247 31-03-2020 17:00:17 14.4 C 20 %
248 31-03-2020 17:10:17 16.2 C 20 %
249 31-03-2020 17:21:17 15.3 C 20 %
250 31-03-2020 17:31:17 14.7 C 20 %
Sensor: Nr:Datum:Temp:Feuchte:
Aussen-T/F 251 31-03-2020 17:40:17 15.5 C 20 %
252 31-03-2020 17:51:17 10.6 C 20 %
253 31-03-2020 18:01:17 10.5 C 20 %
254 31-03-2020 18:11:17 10.2 C 20 %
255 31-03-2020 18:21:17 9.8 C 20 %
256 31-03-2020 18:31:17 9.6 C 20 %
257 31-03-2020 18:40:17 9.4 C 20 %
258 31-03-2020 18:51:17 9.1 C 20 %
259 31-03-2020 19:00:17 9.1 C 20 %
260 31-03-2020 19:10:17 8.8 C 20 %
261 31-03-2020 19:20:17 8.7 C 20 %
262 31-03-2020 19:31:17 8.2 C 20 %
263 31-03-2020 19:41:17 7.7 C 20 %
264 31-03-2020 19:50:17 6.6 C 20 %
265 31-03-2020 20:01:17 5.6 C 20 %
266 31-03-2020 20:11:17 5.5 C 20 %
267 31-03-2020 20:21:17 5.3 C 20 %
268 31-03-2020 20:31:17 4.7 C 20 %
269 31-03-2020 20:41:17 4.4 C 20 %
270 31-03-2020 20:51:17 4 C 20 %
271 31-03-2020 21:00:17 3.7 C 20 %
272 31-03-2020 21:10:18 3.9 C 20 %
273 31-03-2020 21:21:17 3.7 C 20 %
274 31-03-2020 21:31:17 3.5 C 20 %
275 31-03-2020 21:41:17 3.2 C 23 %
Sensor: Nr:Datum:Temp:Feuchte:
Aussen-T/F 276 31-03-2020 21:51:17 3.2 C 23 %
277 31-03-2020 22:00:18 3 C 23 %
278 31-03-2020 22:10:18 2.7 C 25 %
279 31-03-2020 22:21:17 2.7 C 25 %
280 31-03-2020 22:31:17 2.6 C 25 %
281 31-03-2020 22:41:17 1.8 C 30 %
282 31-03-2020 22:50:18 1.6 C 30 %
283 31-03-2020 23:01:17 1.6 C 30 %
284 31-03-2020 23:11:17 1.7 C 30 %
285 31-03-2020 23:21:17 1.4 C 31 %
286 31-03-2020 23:30:17 1.3 C 31 %
287 31-03-2020 23:40:18 1.6 C 31 %
288 31-03-2020 23:51:17 0.9 C 32 %
289 01-04-2020 00:01:17 1.2 C 31 %
290 01-04-2020 00:11:17 0 C 35 %
291 01-04-2020 00:21:17 0.8 C 33 %
292 01-04-2020 00:31:17 0.6 C 32 %
293 01-04-2020 00:41:17 0.5 C 33 %
294 01-04-2020 00:51:17 -0.3 C 35 %
295 01-04-2020 01:01:17 -0.1 C 36 %
296 01-04-2020 01:11:17 -0.3 C 35 %
297 01-04-2020 01:21:17 -1 C 37 %
298 01-04-2020 01:30:18 -1.4 C 38 %
299 01-04-2020 01:40:18 -1.7 C 38 %
300 01-04-2020 01:51:17 -1.9 C 38 %
Sensor: Nr:Datum:Temp:Feuchte:
Aussen-T/F 301 01-04-2020 02:01:17 -1.9 C 38 %
302 01-04-2020 02:11:17 -2 C 38 %
303 01-04-2020 02:21:17 -2.1 C 38 %
304 01-04-2020 02:31:17 -2.3 C 39 %
305 01-04-2020 02:41:17 -2.4 C 38 %
306 01-04-2020 02:50:18 -2.4 C 39 %
307 01-04-2020 03:01:17 -2.5 C 38 %
308 01-04-2020 03:11:17 -2.6 C 38 %
309 01-04-2020 03:21:17 -2.8 C 39 %
310 01-04-2020 03:31:17 -2.7 C 38 %
311 01-04-2020 03:41:18 -3 C 38 %
312 01-04-2020 03:51:17 -3 C 39 %
313 01-04-2020 04:01:17 -2.8 C 39 %
314 01-04-2020 04:11:17 -3.1 C 38 %
315 01-04-2020 04:21:17 -3.2 C 39 %
316 01-04-2020 04:31:18 -3.5 C 38 %
317 01-04-2020 04:41:19 -3.4 C 39 %
318 01-04-2020 04:51:17 -3.5 C 39 %
319 01-04-2020 05:01:18 -3.6 C 39 %
320 01-04-2020 05:11:19 -3.8 C 40 %
321 01-04-2020 05:21:17 -3.8 C 40 %
322 01-04-2020 05:31:18 -3.8 C 40 %
323 01-04-2020 05:41:18 -4 C 40 %
324 01-04-2020 05:51:17 -4.2 C 40 %
325 01-04-2020 06:01:18 -4.2 C 40 %
Sensor: Nr:Datum:Temp:Feuchte:
Aussen-T/F 326 01-04-2020 06:11:18 -4 C 40 %
327 01-04-2020 06:21:17 -4.2 C 40 %
328 01-04-2020 06:31:17 -4.2 C 41 %
329 01-04-2020 06:41:17 -4.3 C 41 %
330 01-04-2020 06:51:17 -4.5 C 41 %
331 01-04-2020 07:01:18 -4.6 C 41 %
332 01-04-2020 07:11:19 -4.7 C 41 %
333 01-04-2020 07:21:17 -4.5 C 41 %
334 01-04-2020 07:31:18 -4.4 C 41 %
335 01-04-2020 07:41:18 -4.5 C 41 %
336 01-04-2020 07:51:17 -4.3 C 41 %
337 01-04-2020 08:01:17 -4.2 C 41 %
338 01-04-2020 08:11:17 -4.2 C 41 %
339 01-04-2020 08:21:17 -3.7 C 41 %
340 01-04-2020 08:31:17 -3.8 C 41 %
341 01-04-2020 08:41:17 -3.7 C 41 %
342 01-04-2020 08:51:17 -3.4 C 40 %
343 01-04-2020 09:01:17 -3.4 C 40 %
344 01-04-2020 09:11:17 -2.7 C 40 %
345 01-04-2020 09:21:17 -2.6 C 40 %
346 01-04-2020 09:31:17 -2.5 C 40 %
347 01-04-2020 09:41:17 -2.1 C 40 %
348 01-04-2020 09:51:17 -1.5 C 39 %
349 01-04-2020 10:01:17 -1 C 39 %
350 01-04-2020 10:11:17 -0.9 C 40 %
Sensor: Nr:Datum:Temp:Feuchte:
Aussen-T/F 351 01-04-2020 10:21:17 -0.4 C 40 %
352 01-04-2020 10:31:18 0.5 C 39 %
353 01-04-2020 10:41:18 1 C 37 %
354 01-04-2020 10:51:17 1.6 C 36 %
355 01-04-2020 11:01:17 2.4 C 35 %
356 01-04-2020 11:11:17 3.2 C 33 %
357 01-04-2020 11:21:17 4.2 C 29 %
358 01-04-2020 11:31:17 4.8 C 20 %
359 01-04-2020 11:41:17 5.3 C 20 %
360 01-04-2020 11:51:17 6 C 20 %
361 01-04-2020 12:01:17 6.6 C 20 %
362 01-04-2020 12:11:18 7.1 C 20 %
363 01-04-2020 12:21:17 8.9 C 20 %
364 01-04-2020 12:31:17 10.3 C 20 %
365 01-04-2020 12:41:17 9.2 C 20 %
366 01-04-2020 12:51:17 8 C 20 %
367 01-04-2020 13:01:17 9.3 C 20 %
368 01-04-2020 13:11:17 9.3 C 20 %
369 01-04-2020 13:21:16 8.6 C 20 %
370 01-04-2020 13:31:17 9.2 C 20 %
371 01-04-2020 13:41:17 9.6 C 20 %
372 01-04-2020 13:51:17 10 C 20 %
373 01-04-2020 14:01:17 10.3 C 20 %
374 01-04-2020 14:11:17 10.7 C 20 %
375 01-04-2020 14:21:17 13.2 C 20 %
Sensor: Nr:Datum:Temp:Feuchte:
Aussen-T/F 376 01-04-2020 14:31:16 15.9 C 20 %
377 01-04-2020 14:41:16 16.3 C 20 %
378 01-04-2020 14:51:17 13.7 C 20 %
379 01-04-2020 15:01:17 14.2 C 20 %
380 01-04-2020 15:11:17 17.2 C 20 %
381 01-04-2020 15:21:17 16.8 C 20 %
382 01-04-2020 15:31:16 16.3 C 20 %
383 01-04-2020 15:41:16 18.2 C 20 %
384 01-04-2020 15:51:17 19.5 C 20 %
385 01-04-2020 16:01:16 18.7 C 20 %
386 01-04-2020 16:11:16 18.7 C 20 %
387 01-04-2020 16:21:16 19.7 C 20 %
388 01-04-2020 16:31:17 21.3 C 20 %
389 01-04-2020 16:41:17 15.5 C 20 %
390 01-04-2020 16:51:16 18.4 C 20 %
391 01-04-2020 17:01:16 17.2 C 20 %
392 01-04-2020 17:11:16 17.4 C 20 %
393 01-04-2020 17:21:17 17.7 C 20 %
394 01-04-2020 17:31:17 18.5 C 20 %
395 01-04-2020 17:41:17 16.8 C 20 %
396 01-04-2020 17:51:17 15.8 C 20 %
397 01-04-2020 18:01:17 12.6 C 20 %
398 01-04-2020 18:11:17 12 C 20 %
399 01-04-2020 18:21:16 12.1 C 20 %
400 01-04-2020 18:31:17 11.7 C 20 %
Sensor: Nr:Datum:Temp:Feuchte:
Aussen-T/F 401 01-04-2020 18:41:17 11.8 C 20 %
402 01-04-2020 18:51:16 11.6 C 20 %
403 01-04-2020 19:01:17 11 C 20 %
404 01-04-2020 19:11:17 10.7 C 20 %
405 01-04-2020 19:21:17 10.4 C 20 %
406 01-04-2020 19:31:17 9.9 C 20 %
407 01-04-2020 19:41:17 9.6 C 20 %
408 01-04-2020 19:51:16 8.9 C 20 %
409 01-04-2020 20:01:17 8.1 C 20 %
410 01-04-2020 20:11:17 7.8 C 20 %
411 01-04-2020 20:21:16 8.1 C 20 %
412 01-04-2020 20:31:16 7.1 C 20 %
413 01-04-2020 20:41:16 6.2 C 20 %
414 01-04-2020 20:51:16 5.9 C 20 %
415 01-04-2020 21:01:16 6 C 20 %
416 01-04-2020 21:11:16 6 C 20 %
417 01-04-2020 21:21:16 5.7 C 20 %
418 01-04-2020 21:31:16 5.7 C 20 %
419 01-04-2020 21:41:16 5.4 C 20 %
420 01-04-2020 21:51:16 4 C 21 %
421 01-04-2020 22:01:16 4.2 C 21 %
422 01-04-2020 22:11:16 3.7 C 26 %
423 01-04-2020 22:21:16 3.2 C 26 %
424 01-04-2020 22:31:16 2.5 C 29 %
425 01-04-2020 22:41:16 2.6 C 28 %
Sensor: Nr:Datum:Temp:Feuchte:
Aussen-T/F 426 01-04-2020 22:51:16 2 C 30 %
427 01-04-2020 23:01:17 1.7 C 33 %
428 01-04-2020 23:11:17 1.7 C 32 %
429 01-04-2020 23:21:16 1.4 C 34 %
430 01-04-2020 23:31:16 1.2 C 34 %
431 01-04-2020 23:41:16 1 C 35 %
432 01-04-2020 23:51:16 1.1 C 34 %
433 02-04-2020 00:01:17 1 C 35 %
434 02-04-2020 00:11:17 0.4 C 36 %
435 02-04-2020 00:21:16 0.4 C 36 %
436 02-04-2020 00:31:17 0.2 C 36 %
437 02-04-2020 00:41:17 0.3 C 37 %
438 02-04-2020 00:51:16 0.3 C 36 %
439 02-04-2020 01:01:17 0 C 37 %
440 02-04-2020 01:11:17 -0.4 C 38 %
441 02-04-2020 01:21:16 -0.6 C 38 %
442 02-04-2020 01:31:17 -0.7 C 38 %
443 02-04-2020 01:41:17 -0.7 C 38 %
444 02-04-2020 01:51:16 -0.9 C 39 %
445 02-04-2020 02:01:16 -1 C 39 %
446 02-04-2020 02:11:16 -1 C 39 %
447 02-04-2020 02:21:16 -1.2 C 39 %
448 02-04-2020 02:31:17 -1.3 C 40 %
449 02-04-2020 02:41:17 -1.6 C 40 %
450 02-04-2020 02:51:17 -1.5 C 40 %
Sensor: Nr:Datum:Temp:Feuchte:
Aussen-T/F 451 02-04-2020 03:01:17 -1.5 C 40 %
452 02-04-2020 03:11:17 -1.5 C 40 %
453 02-04-2020 03:21:17 -1.3 C 40 %
454 02-04-2020 03:31:17 -1.4 C 40 %
455 02-04-2020 03:41:17 -1.6 C 40 %
456 02-04-2020 03:51:18 -1.7 C 40 %
457 02-04-2020 04:01:18 -2.1 C 40 %
458 02-04-2020 04:11:18 -1.7 C 41 %
459 02-04-2020 04:21:18 -1.6 C 40 %
460 02-04-2020 04:31:17 -2 C 40 %
461 02-04-2020 04:41:17 -2.4 C 41 %
462 02-04-2020 04:51:17 -2.7 C 41 %
463 02-04-2020 05:01:18 -2.6 C 41 %
464 02-04-2020 05:11:18 -2.6 C 41 %
465 02-04-2020 05:21:17 -2.6 C 41 %
466 02-04-2020 05:31:18 -2.7 C 41 %
467 02-04-2020 05:41:18 -2.6 C 41 %
468 02-04-2020 05:51:17 -2.5 C 41 %
469 02-04-2020 06:01:17 -2.6 C 41 %
470 02-04-2020 06:11:17 -3 C 41 %
471 02-04-2020 06:21:17 -3 C 42 %
472 02-04-2020 06:31:17 -2.6 C 43 %
473 02-04-2020 06:41:17 -3.1 C 42 %
474 02-04-2020 06:51:17 -2.9 C 42 %
475 02-04-2020 07:01:17 -3.3 C 42 %
Sensor: Nr:Datum:Temp:Feuchte:
Aussen-T/F 476 02-04-2020 07:11:17 -3 C 42 %
477 02-04-2020 07:21:17 -3.1 C 42 %
478 02-04-2020 07:31:17 -3 C 43 %
479 02-04-2020 07:41:18 -2.9 C 42 %
480 02-04-2020 07:51:17 -3 C 43 %
481 02-04-2020 08:01:17 -2.7 C 43 %
482 02-04-2020 08:11:18 -2.5 C 43 %
483 02-04-2020 08:21:17 -2.2 C 42 %
484 02-04-2020 08:31:17 -2.2 C 42 %
485 02-04-2020 08:41:17 -2 C 42 %
486 02-04-2020 08:51:17 -1.8 C 42 %
487 02-04-2020 09:01:17 -1.7 C 42 %
488 02-04-2020 09:11:17 -1.5 C 41 %
489 02-04-2020 09:21:17 -1.3 C 41 %
490 02-04-2020 09:31:17 -1 C 41 %
491 02-04-2020 09:41:17 -0.6 C 41 %
492 02-04-2020 09:51:18 -0.3 C 41 %
493 02-04-2020 10:01:18 0.1 C 41 %
494 02-04-2020 10:11:18 0.6 C 41 %
495 02-04-2020 10:21:17 0.8 C 41 %
496 02-04-2020 10:31:17 1.7 C 40 %
497 02-04-2020 10:41:17 2.2 C 39 %
498 02-04-2020 10:51:17 3.1 C 37 %
499 02-04-2020 11:01:17 3.6 C 37 %
500 02-04-2020 11:11:17 4.6 C 35 %
Sensor: Nr:Datum:Temp:Feuchte:
Aussen-T/F 501 02-04-2020 11:21:17 5.7 C 30 %
502 02-04-2020 11:31:18 6.5 C 30 %
503 02-04-2020 11:41:18 6.9 C 29 %
504 02-04-2020 11:51:17 7.4 C 27 %
505 02-04-2020 12:01:17 8.1 C 27 %
506 02-04-2020 12:11:17 8.5 C 25 %
507 02-04-2020 12:21:17 10.5 C 20 %
508 02-04-2020 12:31:18 12.2 C 20 %
509 02-04-2020 12:41:18 10.8 C 20 %
510 02-04-2020 12:51:17 10.3 C 20 %
511 02-04-2020 13:01:17 11 C 20 %
512 02-04-2020 13:11:18 11.5 C 20 %
513 02-04-2020 13:21:17 11.6 C 20 %
514 02-04-2020 13:31:17 11.4 C 20 %
515 02-04-2020 13:41:17 12.3 C 20 %
516 02-04-2020 13:51:17 12.5 C 20 %
517 02-04-2020 14:01:17 11.8 C 20 %
518 02-04-2020 14:11:17 12.6 C 20 %
519 02-04-2020 14:21:17 15.5 C 20 %
520 02-04-2020 14:31:18 18.1 C 20 %
521 02-04-2020 14:41:18 18.3 C 20 %
522 02-04-2020 14:51:17 18.3 C 20 %
523 02-04-2020 15:01:18 19.7 C 20 %
524 02-04-2020 15:11:18 17.5 C 20 %
525 02-04-2020 15:21:17 19.2 C 20 %
Sensor: Nr:Datum:Temp:Feuchte:
Aussen-T/F 526 02-04-2020 15:31:18 19.8 C 20 %
527 02-04-2020 15:41:18 19.3 C 20 %
528 02-04-2020 15:51:17 19.4 C 20 %
529 02-04-2020 16:01:17 21.3 C 20 %
530 02-04-2020 16:11:17 19.9 C 20 %
531 02-04-2020 16:21:17 16.6 C 20 %
532 02-04-2020 16:31:18 18 C 20 %
533 02-04-2020 16:41:18 17.6 C 20 %
534 02-04-2020 16:51:17 17.8 C 20 %
535 02-04-2020 17:01:17 17.3 C 20 %
536 02-04-2020 17:11:17 16.6 C 20 %
537 02-04-2020 17:21:17 15.8 C 20 %
538 02-04-2020 17:31:18 15.5 C 20 %
539 02-04-2020 17:41:18 14.7 C 20 %
540 02-04-2020 17:51:17 14.8 C 20 %
541 02-04-2020 18:01:17 12.8 C 20 %
542 02-04-2020 18:11:17 12.2 C 20 %
543 02-04-2020 18:21:17 12.3 C 20 %
544 02-04-2020 18:31:17 11.8 C 20 %
545 02-04-2020 18:41:17 11.3 C 20 %
546 02-04-2020 18:51:17 11.1 C 20 %
547 02-04-2020 19:01:17 10.7 C 20 %
548 02-04-2020 19:11:17 10.2 C 20 %
549 02-04-2020 19:21:17 10 C 20 %
550 02-04-2020 19:31:17 9.6 C 20 %
Sensor: Nr:Datum:Temp:Feuchte:
Aussen-T/F 551 02-04-2020 19:41:17 9.5 C 20 %
552 02-04-2020 19:51:17 8.7 C 20 %
553 02-04-2020 20:01:17 8.5 C 20 %
554 02-04-2020 20:11:17 8.5 C 20 %
555 02-04-2020 20:21:17 7.9 C 20 %
556 02-04-2020 20:31:17 7.8 C 20 %
557 02-04-2020 20:41:17 7.2 C 21 %
558 02-04-2020 20:51:17 6.9 C 25 %
559 02-04-2020 21:01:17 6.4 C 26 %
560 02-04-2020 21:11:17 6.3 C 27 %
561 02-04-2020 21:21:17 5.9 C 28 %
562 02-04-2020 21:31:18 5.7 C 29 %
563 02-04-2020 21:41:18 5.6 C 30 %
564 02-04-2020 21:51:17 5.3 C 30 %
565 02-04-2020 22:01:17 5.2 C 30 %
566 02-04-2020 22:11:17 5.5 C 30 %
567 02-04-2020 22:21:17 5 C 30 %
568 02-04-2020 22:31:18 5.3 C 31 %
569 02-04-2020 22:41:18 5.2 C 31 %
570 02-04-2020 22:51:17 5.1 C 31 %
571 02-04-2020 23:01:17 4.8 C 32 %
572 02-04-2020 23:11:17 5 C 31 %
573 02-04-2020 23:21:17 5 C 31 %
574 02-04-2020 23:31:18 4.7 C 33 %
575 02-04-2020 23:41:18 3.9 C 35 %
Sensor: Nr:Datum:Temp:Feuchte:
Aussen-T/F 576 02-04-2020 23:51:17 3.1 C 36 %
577 03-04-2020 00:01:18 2.7 C 38 %
578 03-04-2020 00:11:18 2.3 C 39 %
579 03-04-2020 00:21:17 2.6 C 40 %
580 03-04-2020 00:31:17 2.6 C 39 %
581 03-04-2020 00:41:17 3.2 C 38 %
582 03-04-2020 00:51:17 2.4 C 39 %
583 03-04-2020 01:01:18 2.4 C 39 %
584 03-04-2020 01:11:18 2.4 C 39 %
585 03-04-2020 01:21:17 2.6 C 39 %
586 03-04-2020 01:31:18 2.7 C 39 %
587 03-04-2020 01:41:18 2.5 C 39 %
588 03-04-2020 01:51:17 2.3 C 39 %
589 03-04-2020 02:01:18 2.2 C 39 %
590 03-04-2020 02:11:18 2.3 C 39 %
591 03-04-2020 02:21:18 3.1 C 38 %
592 03-04-2020 02:31:18 3.2 C 38 %
593 03-04-2020 02:41:18 2.6 C 39 %
594 03-04-2020 02:51:17 2.8 C 39 %
595 03-04-2020 03:01:18 3 C 38 %
596 03-04-2020 03:11:18 3.6 C 38 %
597 03-04-2020 03:21:17 3.9 C 38 %
598 03-04-2020 03:31:17 4.4 C 36 %
599 03-04-2020 03:41:17 4.7 C 36 %
600 03-04-2020 03:51:17 4.6 C 36 %
Sensor: Nr:Datum:Temp:Feuchte:
Aussen-T/F 601 03-04-2020 04:01:17 5 C 35 %
602 03-04-2020 04:11:17 5.6 C 35 %
603 03-04-2020 04:21:17 4.9 C 35 %
604 03-04-2020 04:31:18 4.7 C 36 %
605 03-04-2020 04:41:18 4.6 C 36 %
606 03-04-2020 04:51:18 4.4 C 36 %
607 03-04-2020 05:01:18 4.3 C 36 %
608 03-04-2020 05:11:18 4.5 C 36 %
609 03-04-2020 05:21:17 4.8 C 36 %
610 03-04-2020 05:31:17 4.8 C 36 %
611 03-04-2020 05:41:17 5.2 C 35 %
612 03-04-2020 05:51:17 5.3 C 35 %
613 03-04-2020 06:01:18 5.4 C 35 %
614 03-04-2020 06:11:18 5.4 C 35 %
615 03-04-2020 06:21:17 5.1 C 35 %
616 03-04-2020 06:31:17 5.1 C 36 %
617 03-04-2020 06:41:17 5.1 C 35 %
618 03-04-2020 06:51:17 5.2 C 35 %
619 03-04-2020 07:01:17 5.7 C 35 %
620 03-04-2020 07:11:17 5.6 C 35 %
621 03-04-2020 07:21:18 5.5 C 35 %
622 03-04-2020 07:31:17 5.7 C 35 %
623 03-04-2020 07:41:17 5.6 C 35 %
624 03-04-2020 07:51:17 5.6 C 35 %
625 03-04-2020 08:01:17 5.7 C 35 %
Sensor: Nr:Datum:Temp:Feuchte:
Aussen-T/F 626 03-04-2020 08:11:17 5.9 C 35 %
627 03-04-2020 08:21:18 5.9 C 35 %
628 03-04-2020 08:31:17 5.9 C 35 %
629 03-04-2020 08:41:17 6.1 C 35 %
630 03-04-2020 08:51:18 6.6 C 35 %
631 03-04-2020 09:01:17 7 C 34 %
632 03-04-2020 09:11:17 7.1 C 34 %
633 03-04-2020 09:21:18 7.6 C 34 %
634 03-04-2020 09:31:18 7.7 C 34 %
635 03-04-2020 09:41:18 8 C 33 %
636 03-04-2020 09:51:17 8.4 C 33 %
637 03-04-2020 10:01:18 8.6 C 32 %
638 03-04-2020 10:11:18 8.6 C 32 %
639 03-04-2020 10:21:17 9 C 32 %
640 03-04-2020 10:31:18 9.4 C 32 %
641 03-04-2020 10:41:18 9.2 C 32 %
642 03-04-2020 10:51:17 9.6 C 32 %
643 03-04-2020 11:01:17 10.6 C 31 %
644 03-04-2020 11:11:17 11.2 C 29 %
645 03-04-2020 11:21:17 10.9 C 29 %
646 03-04-2020 11:31:17 11.1 C 28 %
647 03-04-2020 11:41:17 11.5 C 26 %
648 03-04-2020 11:51:17 11.4 C 26 %
649 03-04-2020 12:01:17 11.1 C 26 %
650 03-04-2020 12:11:17 11.2 C 26 %
Sensor: Nr:Datum:Temp:Feuchte:
Aussen-T/F 651 03-04-2020 12:21:17 11.4 C 26 %
652 03-04-2020 12:31:17 11.6 C 25 %
653 03-04-2020 12:41:18 11.1 C 25 %
654 03-04-2020 12:51:17 11.1 C 25 %
655 03-04-2020 13:01:18 11.2 C 25 %
656 03-04-2020 13:11:18 11.7 C 25 %
657 03-04-2020 13:21:17 12.2 C 22 %
658 03-04-2020 13:31:17 11.8 C 22 %
659 03-04-2020 13:41:17 11.8 C 23 %
660 03-04-2020 13:51:17 12.2 C 22 %
661 03-04-2020 14:01:18 12.3 C 20 %
662 03-04-2020 14:11:18 11.6 C 21 %
663 03-04-2020 14:21:17 11.7 C 21 %
664 03-04-2020 14:31:17 11.6 C 21 %
665 03-04-2020 14:41:18 11.4 C 23 %
666 03-04-2020 14:51:17 11.7 C 21 %
667 03-04-2020 15:01:17 11.8 C 20 %
668 03-04-2020 15:11:17 11.7 C 20 %
669 03-04-2020 15:21:18 11.8 C 20 %
670 03-04-2020 15:31:17 12.1 C 20 %
671 03-04-2020 15:41:17 12.5 C 20 %
672 03-04-2020 15:51:17 13.1 C 20 %
673 03-04-2020 16:01:17 12.6 C 20 %
674 03-04-2020 16:11:17 12.4 C 20 %
675 03-04-2020 16:21:17 12.4 C 20 %
Sensor: Nr:Datum:Temp:Feuchte:
Aussen-T/F 676 03-04-2020 16:31:17 12.3 C 20 %
677 03-04-2020 16:41:17 12.4 C 20 %
678 03-04-2020 16:51:17 12.4 C 20 %
679 03-04-2020 17:01:17 12.2 C 20 %
680 03-04-2020 17:11:17 12.2 C 20 %
681 03-04-2020 17:21:17 12.2 C 20 %
682 03-04-2020 17:31:17 12.2 C 20 %
683 03-04-2020 17:41:17 12.4 C 20 %
684 03-04-2020 17:51:17 11.9 C 20 %
685 03-04-2020 18:01:17 11.5 C 20 %
686 03-04-2020 18:11:17 11.7 C 20 %
687 03-04-2020 18:21:17 11.5 C 20 %
688 03-04-2020 18:31:18 11.4 C 20 %
689 03-04-2020 18:41:18 11 C 20 %
690 03-04-2020 18:51:17 11 C 20 %
691 03-04-2020 19:01:18 10.8 C 20 %
692 03-04-2020 19:11:18 10.7 C 20 %
693 03-04-2020 19:21:17 10.5 C 20 %
694 03-04-2020 19:31:17 10.2 C 20 %
695 03-04-2020 19:41:17 10.3 C 20 %
696 03-04-2020 19:51:17 9.9 C 20 %
697 03-04-2020 20:01:17 9.8 C 20 %
698 03-04-2020 20:11:17 9.5 C 20 %
699 03-04-2020 20:21:17 9.1 C 20 %
700 03-04-2020 20:31:18 9.5 C 20 %
Sensor: Nr:Datum:Temp:Feuchte:
Aussen-T/F 701 03-04-2020 20:41:18 9.2 C 20 %
702 03-04-2020 20:51:18 9.1 C 20 %
703 03-04-2020 21:01:17 9.2 C 20 %
704 03-04-2020 21:11:17 9.1 C 20 %
705 03-04-2020 21:21:17 8.9 C 20 %
706 03-04-2020 21:31:17 8.7 C 20 %
707 03-04-2020 21:41:17 8.6 C 20 %
708 03-04-2020 21:51:17 8.3 C 20 %
709 03-04-2020 22:01:17 8.1 C 20 %
710 03-04-2020 22:11:17 7.9 C 20 %
711 03-04-2020 22:21:17 7.2 C 23 %
712 03-04-2020 22:31:18 6.8 C 25 %
713 03-04-2020 22:41:18 6.5 C 26 %
714 03-04-2020 22:51:17 6.3 C 26 %
715 03-04-2020 23:01:17 6.4 C 26 %
716 03-04-2020 23:11:18 6.4 C 25 %
717 03-04-2020 23:21:18 6.2 C 26 %
718 03-04-2020 23:31:17 5.2 C 28 %
719 03-04-2020 23:41:18 5 C 29 %
720 03-04-2020 23:51:17 4.7 C 30 %
Sensor: Nr:Datum:Temp:Feuchte:
G-T/H 1 30-03-2020 00:00:18 9.6 C 61 %
2 30-03-2020 00:10:18 9.6 C 60 %
3 30-03-2020 00:20:17 9.6 C 60 %
4 30-03-2020 00:30:17 9.6 C 60 %
5 30-03-2020 00:40:17 9.6 C 60 %
6 30-03-2020 00:50:17 9.5 C 60 %
7 30-03-2020 01:00:18 9.5 C 60 %
8 30-03-2020 01:10:18 9.5 C 61 %
9 30-03-2020 01:20:17 9.5 C 61 %
10 30-03-2020 01:30:18 9.5 C 61 %
11 30-03-2020 01:40:18 9.5 C 61 %
12 30-03-2020 01:50:17 9.4 C 61 %
13 30-03-2020 02:00:17 9.4 C 61 %
14 30-03-2020 02:10:17 9.4 C 61 %
15 30-03-2020 02:20:17 9.4 C 61 %
16 30-03-2020 02:30:18 9.4 C 61 %
17 30-03-2020 02:40:18 9.3 C 61 %
18 30-03-2020 02:50:17 9.3 C 61 %
19 30-03-2020 03:00:18 9.3 C 61 %
20 30-03-2020 03:10:18 9.3 C 61 %
21 30-03-2020 03:20:18 9.3 C 61 %
22 30-03-2020 03:30:18 9.3 C 61 %
23 30-03-2020 03:40:18 9.2 C 61 %
24 30-03-2020 03:50:17 9.2 C 61 %
25 30-03-2020 04:00:18 9.2 C 61 %
Sensor: Nr:Datum:Temp:Feuchte:
G-T/H 26 30-03-2020 04:10:18 9.1 C 61 %
27 30-03-2020 04:20:17 9.2 C 60 %
28 30-03-2020 04:30:17 9.2 C 60 %
29 30-03-2020 04:40:17 9.1 C 60 %
30 30-03-2020 04:50:17 9.1 C 60 %
31 30-03-2020 05:00:17 9 C 60 %
32 30-03-2020 05:10:17 9 C 60 %
33 30-03-2020 05:20:17 9 C 60 %
34 30-03-2020 05:30:18 9 C 60 %
35 30-03-2020 05:40:18 9 C 60 %
36 30-03-2020 05:50:17 9 C 60 %
37 30-03-2020 06:00:18 8.9 C 61 %
38 30-03-2020 06:10:18 8.9 C 61 %
39 30-03-2020 06:20:17 8.9 C 61 %
40 30-03-2020 06:30:17 8.8 C 61 %
41 30-03-2020 06:40:17 8.9 C 61 %
42 30-03-2020 06:50:17 8.8 C 61 %
43 30-03-2020 07:00:17 8.7 C 61 %
44 30-03-2020 07:10:17 8.7 C 61 %
45 30-03-2020 07:20:17 8.7 C 61 %
46 30-03-2020 07:30:18 8.7 C 60 %
47 30-03-2020 07:40:18 8.7 C 60 %
48 30-03-2020 07:50:17 8.7 C 60 %
49 30-03-2020 08:00:18 8.6 C 60 %
50 30-03-2020 08:10:18 8.6 C 60 %
Sensor: Nr:Datum:Temp:Feuchte:
G-T/H 51 30-03-2020 08:20:18 8.6 C 60 %
52 30-03-2020 08:30:18 8.5 C 60 %
53 30-03-2020 08:40:18 8.5 C 60 %
54 30-03-2020 08:50:17 8.5 C 60 %
55 30-03-2020 09:00:18 8.5 C 60 %
56 30-03-2020 09:10:18 8.5 C 60 %
57 30-03-2020 09:20:18 8.5 C 60 %
58 30-03-2020 09:30:18 8.5 C 60 %
59 30-03-2020 09:40:18 8.4 C 60 %
60 30-03-2020 09:50:18 8.4 C 60 %
61 30-03-2020 10:00:18 8.4 C 60 %
62 30-03-2020 10:10:18 8.4 C 60 %
63 30-03-2020 10:20:17 8.3 C 60 %
64 30-03-2020 10:30:17 8.3 C 60 %
65 30-03-2020 10:40:17 8.3 C 60 %
66 30-03-2020 10:50:17 8.3 C 60 %
67 30-03-2020 11:00:17 8.3 C 60 %
68 30-03-2020 11:10:18 8.3 C 60 %
69 30-03-2020 11:20:18 8.2 C 60 %
70 30-03-2020 11:30:18 8.2 C 60 %
71 30-03-2020 11:40:18 8.2 C 60 %
72 30-03-2020 11:50:18 8.2 C 60 %
73 30-03-2020 12:00:18 8.2 C 60 %
74 30-03-2020 12:10:18 8.2 C 60 %
75 30-03-2020 12:20:18 8.2 C 60 %
Sensor: Nr:Datum:Temp:Feuchte:
G-T/H 76 30-03-2020 12:30:18 8.2 C 60 %
77 30-03-2020 12:40:18 8.2 C 60 %
78 30-03-2020 12:50:18 8.2 C 60 %
79 30-03-2020 13:00:18 8.1 C 60 %
80 30-03-2020 13:10:18 8.2 C 60 %
81 30-03-2020 13:20:18 7.9 C 52 %
82 30-03-2020 13:30:17 8 C 50 %
83 30-03-2020 13:40:17 8 C 50 %
84 30-03-2020 13:50:17 8 C 51 %
85 30-03-2020 14:00:17 8 C 52 %
86 30-03-2020 14:10:17 8.1 C 53 %
87 30-03-2020 14:20:18 8.1 C 54 %
88 30-03-2020 14:30:18 8.1 C 54 %
89 30-03-2020 14:40:18 8.1 C 55 %
90 30-03-2020 14:50:18 8.1 C 55 %
91 30-03-2020 15:00:18 8.1 C 56 %
92 30-03-2020 15:10:18 8.1 C 56 %
93 30-03-2020 15:20:17 8.2 C 56 %
94 30-03-2020 15:30:18 8.2 C 56 %
95 30-03-2020 15:40:18 8.2 C 57 %
96 30-03-2020 15:50:18 8.2 C 57 %
97 30-03-2020 16:00:18 8.2 C 57 %
98 30-03-2020 16:10:18 8.3 C 57 %
99 30-03-2020 16:20:17 8.3 C 57 %
100 30-03-2020 16:30:18 8.3 C 58 %
Sensor: Nr:Datum:Temp:Feuchte:
G-T/H 101 30-03-2020 16:40:18 8.3 C 58 %
102 30-03-2020 16:50:18 8.3 C 58 %
103 30-03-2020 17:00:17 8.3 C 58 %
104 30-03-2020 17:10:17 8.3 C 58 %
105 30-03-2020 17:20:18 8.4 C 58 %
106 30-03-2020 17:30:18 8.4 C 58 %
107 30-03-2020 17:40:18 8.4 C 58 %
108 30-03-2020 17:50:18 8.4 C 58 %
109 30-03-2020 18:00:18 8.4 C 59 %
110 30-03-2020 18:10:18 8.4 C 59 %
111 30-03-2020 18:20:18 8.4 C 59 %
112 30-03-2020 18:30:18 8.5 C 59 %
113 30-03-2020 18:40:18 8.4 C 59 %
114 30-03-2020 18:50:18 8.4 C 59 %
115 30-03-2020 19:00:18 8.4 C 60 %
116 30-03-2020 19:10:18 8.5 C 60 %
117 30-03-2020 19:20:17 8.5 C 60 %
118 30-03-2020 19:30:18 8.5 C 60 %
119 30-03-2020 19:40:18 8.5 C 60 %
120 30-03-2020 19:50:17 8.5 C 60 %
121 30-03-2020 20:00:18 8.5 C 60 %
122 30-03-2020 20:10:18 8.5 C 60 %
123 30-03-2020 20:20:17 8.5 C 61 %
124 30-03-2020 20:30:18 8.5 C 61 %
125 30-03-2020 20:40:18 8.5 C 61 %
Sensor: Nr:Datum:Temp:Feuchte:
G-T/H 126 30-03-2020 20:50:18 8.5 C 61 %
127 30-03-2020 21:00:18 8.5 C 61 %
128 30-03-2020 21:10:18 8.5 C 61 %
129 30-03-2020 21:20:18 8.5 C 61 %
130 30-03-2020 21:30:18 8.5 C 61 %
131 30-03-2020 21:40:18 8.5 C 61 %
132 30-03-2020 21:50:18 8.5 C 61 %
133 30-03-2020 22:00:18 8.5 C 62 %
134 30-03-2020 22:10:18 8.5 C 62 %
135 30-03-2020 22:20:17 8.5 C 62 %
136 30-03-2020 22:30:18 8.5 C 62 %
137 30-03-2020 22:40:18 8.5 C 62 %
138 30-03-2020 22:50:18 8.5 C 62 %
139 30-03-2020 23:00:18 8.5 C 62 %
140 30-03-2020 23:10:18 8.5 C 62 %
141 30-03-2020 23:20:18 8.5 C 62 %
142 30-03-2020 23:30:18 8.6 C 62 %
143 30-03-2020 23:40:18 8.5 C 62 %
144 30-03-2020 23:50:17 8.5 C 62 %
145 31-03-2020 00:00:18 8.5 C 62 %
146 31-03-2020 00:10:18 8.5 C 62 %
147 31-03-2020 00:20:18 8.5 C 62 %
148 31-03-2020 00:30:18 8.5 C 63 %
149 31-03-2020 00:40:18 8.6 C 63 %
150 31-03-2020 00:50:18 8.5 C 63 %
Sensor: Nr:Datum:Temp:Feuchte:
G-T/H 151 31-03-2020 01:00:18 8.5 C 63 %
152 31-03-2020 01:10:18 8.5 C 63 %
153 31-03-2020 01:20:18 8.6 C 63 %
154 31-03-2020 01:30:18 8.5 C 63 %
155 31-03-2020 01:40:18 8.6 C 63 %
156 31-03-2020 01:50:18 8.5 C 63 %
157 31-03-2020 02:00:18 8.5 C 63 %
158 31-03-2020 02:10:18 8.5 C 63 %
159 31-03-2020 02:20:17 8.5 C 63 %
160 31-03-2020 02:30:18 8.5 C 63 %
161 31-03-2020 02:40:18 8.5 C 63 %
162 31-03-2020 02:50:18 8.5 C 63 %
163 31-03-2020 03:00:18 8.5 C 64 %
164 31-03-2020 03:10:18 8.5 C 64 %
165 31-03-2020 03:20:17 8.5 C 64 %
166 31-03-2020 03:30:18 8.5 C 64 %
167 31-03-2020 03:40:18 8.5 C 64 %
168 31-03-2020 03:50:18 8.5 C 64 %
169 31-03-2020 04:00:18 8.5 C 64 %
170 31-03-2020 04:10:18 8.5 C 64 %
171 31-03-2020 04:20:18 8.5 C 64 %
172 31-03-2020 04:30:17 8.5 C 64 %
173 31-03-2020 04:40:18 8.5 C 64 %
174 31-03-2020 04:50:17 8.5 C 64 %
175 31-03-2020 05:00:18 8.5 C 64 %
Sensor: Nr:Datum:Temp:Feuchte:
G-T/H 176 31-03-2020 05:10:18 8.5 C 64 %
177 31-03-2020 05:20:17 8.5 C 64 %
178 31-03-2020 05:30:18 8.5 C 64 %
179 31-03-2020 05:40:18 8.5 C 64 %
180 31-03-2020 05:50:18 8.5 C 64 %
181 31-03-2020 06:00:18 8.5 C 64 %
182 31-03-2020 06:10:18 8.5 C 64 %
183 31-03-2020 06:20:18 8.5 C 64 %
184 31-03-2020 06:30:18 8.4 C 64 %
185 31-03-2020 06:40:18 8.5 C 64 %
186 31-03-2020 06:50:18 8.4 C 64 %
187 31-03-2020 07:00:18 8.5 C 64 %
188 31-03-2020 07:10:18 8.4 C 64 %
189 31-03-2020 07:20:18 8.4 C 64 %
190 31-03-2020 07:30:18 8.4 C 64 %
191 31-03-2020 07:40:18 8.4 C 65 %
192 31-03-2020 07:50:17 8.4 C 65 %
193 31-03-2020 08:00:18 8.4 C 65 %
194 31-03-2020 08:10:18 8.4 C 65 %
195 31-03-2020 08:20:18 8.4 C 65 %
196 31-03-2020 08:30:18 8.4 C 65 %
197 31-03-2020 08:40:18 8.4 C 65 %
198 31-03-2020 08:50:17 8.4 C 65 %
199 31-03-2020 09:00:18 8.4 C 65 %
200 31-03-2020 09:10:18 8.4 C 65 %
Sensor: Nr:Datum:Temp:Feuchte:
G-T/H 201 31-03-2020 09:20:18 8.4 C 65 %
202 31-03-2020 09:30:17 8.4 C 65 %
203 31-03-2020 09:40:17 8.4 C 65 %
204 31-03-2020 09:50:18 8.4 C 65 %
205 31-03-2020 10:00:18 8.4 C 65 %
206 31-03-2020 10:10:18 8.4 C 65 %
207 31-03-2020 10:20:18 8.4 C 65 %
208 31-03-2020 10:30:18 8.4 C 65 %
209 31-03-2020 10:40:18 8.4 C 64 %
210 31-03-2020 10:50:17 8.4 C 64 %
211 31-03-2020 11:00:17 8.4 C 64 %
212 31-03-2020 11:10:17 8.4 C 64 %
213 31-03-2020 11:20:18 8.4 C 64 %
214 31-03-2020 11:30:18 8.4 C 64 %
215 31-03-2020 11:40:18 8.4 C 64 %
216 31-03-2020 11:50:17 8.4 C 64 %
217 31-03-2020 12:00:18 8.4 C 64 %
218 31-03-2020 12:10:18 8.4 C 64 %
219 31-03-2020 12:20:17 8.4 C 64 %
220 31-03-2020 12:30:18 8.4 C 64 %
221 31-03-2020 12:40:18 8.5 C 64 %
222 31-03-2020 12:50:18 8.5 C 64 %
223 31-03-2020 13:00:17 8.5 C 64 %
224 31-03-2020 13:10:17 8.5 C 64 %
225 31-03-2020 13:20:17 8.5 C 63 %
Sensor: Nr:Datum:Temp:Feuchte:
G-T/H 226 31-03-2020 13:30:17 8.5 C 63 %
227 31-03-2020 13:40:17 8.4 C 63 %
228 31-03-2020 13:51:17 8.5 C 63 %
229 31-03-2020 14:00:17 8.5 C 63 %
230 31-03-2020 14:10:17 8.5 C 63 %
231 31-03-2020 14:20:17 8.5 C 63 %
232 31-03-2020 14:30:17 8.5 C 63 %
233 31-03-2020 14:40:17 8.5 C 63 %
234 31-03-2020 14:51:17 8.6 C 63 %
235 31-03-2020 15:00:17 8.6 C 63 %
236 31-03-2020 15:10:18 8.6 C 63 %
237 31-03-2020 15:20:17 8.6 C 63 %
238 31-03-2020 15:30:17 8.6 C 63 %
239 31-03-2020 15:40:17 8.6 C 63 %
240 31-03-2020 15:50:18 8.6 C 63 %
241 31-03-2020 16:00:17 8.6 C 63 %
242 31-03-2020 16:10:17 8.6 C 63 %
243 31-03-2020 16:20:17 8.6 C 63 %
244 31-03-2020 16:31:17 8.7 C 63 %
245 31-03-2020 16:40:17 8.7 C 63 %
246 31-03-2020 16:50:17 8.7 C 63 %
247 31-03-2020 17:00:17 8.7 C 63 %
248 31-03-2020 17:10:17 8.7 C 63 %
249 31-03-2020 17:21:17 8.7 C 63 %
250 31-03-2020 17:31:17 8.8 C 63 %
Sensor: Nr:Datum:Temp:Feuchte:
G-T/H 251 31-03-2020 17:40:17 8.8 C 63 %
252 31-03-2020 17:51:17 8.8 C 62 %
253 31-03-2020 18:01:17 8.8 C 59 %
254 31-03-2020 18:11:17 8.8 C 56 %
255 31-03-2020 18:21:17 8.8 C 56 %
256 31-03-2020 18:31:17 8.8 C 56 %
257 31-03-2020 18:40:17 8.8 C 56 %
258 31-03-2020 18:51:17 8.8 C 57 %
259 31-03-2020 19:00:17 8.8 C 58 %
260 31-03-2020 19:10:17 8.9 C 58 %
261 31-03-2020 19:20:17 8.8 C 58 %
262 31-03-2020 19:31:17 8.9 C 59 %
263 31-03-2020 19:41:17 8.9 C 59 %
264 31-03-2020 19:50:17 8.9 C 59 %
265 31-03-2020 20:01:17 8.9 C 60 %
266 31-03-2020 20:11:17 8.9 C 60 %
267 31-03-2020 20:21:17 8.9 C 60 %
268 31-03-2020 20:31:17 8.9 C 61 %
269 31-03-2020 20:41:17 8.9 C 61 %
270 31-03-2020 20:51:17 8.9 C 61 %
271 31-03-2020 21:00:17 8.9 C 61 %
272 31-03-2020 21:10:18 8.9 C 61 %
273 31-03-2020 21:21:17 8.8 C 61 %
274 31-03-2020 21:31:17 8.9 C 61 %
275 31-03-2020 21:41:17 8.9 C 62 %
Sensor: Nr:Datum:Temp:Feuchte:
G-T/H 276 31-03-2020 21:51:17 8.9 C 62 %
277 31-03-2020 22:00:18 8.9 C 62 %
278 31-03-2020 22:10:18 8.8 C 62 %
279 31-03-2020 22:21:17 8.8 C 62 %
280 31-03-2020 22:31:17 8.8 C 62 %
281 31-03-2020 22:41:17 8.8 C 62 %
282 31-03-2020 22:50:18 8.8 C 62 %
283 31-03-2020 23:01:17 8.8 C 62 %
284 31-03-2020 23:11:17 8.8 C 62 %
285 31-03-2020 23:21:17 8.8 C 62 %
286 31-03-2020 23:30:17 8.8 C 62 %
287 31-03-2020 23:40:18 8.8 C 62 %
288 31-03-2020 23:51:17 8.8 C 62 %
289 01-04-2020 00:01:17 8.8 C 62 %
290 01-04-2020 00:11:17 8.8 C 62 %
291 01-04-2020 00:21:17 8.8 C 62 %
292 01-04-2020 00:31:17 8.7 C 62 %
293 01-04-2020 00:41:17 8.7 C 62 %
294 01-04-2020 00:51:17 8.7 C 62 %
295 01-04-2020 01:01:17 8.7 C 62 %
296 01-04-2020 01:11:17 8.7 C 62 %
297 01-04-2020 01:21:17 8.7 C 62 %
298 01-04-2020 01:30:18 8.7 C 62 %
299 01-04-2020 01:40:18 8.7 C 62 %
300 01-04-2020 01:51:17 8.6 C 62 %
Sensor: Nr:Datum:Temp:Feuchte:
G-T/H 301 01-04-2020 02:01:17 8.6 C 62 %
302 01-04-2020 02:11:17 8.6 C 62 %
303 01-04-2020 02:21:17 8.6 C 62 %
304 01-04-2020 02:31:17 8.6 C 62 %
305 01-04-2020 02:41:17 8.6 C 62 %
306 01-04-2020 02:50:18 8.6 C 62 %
307 01-04-2020 03:01:17 8.5 C 62 %
308 01-04-2020 03:11:17 8.5 C 62 %
309 01-04-2020 03:21:17 8.5 C 62 %
310 01-04-2020 03:31:17 8.5 C 62 %
311 01-04-2020 03:41:18 8.5 C 62 %
312 01-04-2020 03:51:17 8.5 C 62 %
313 01-04-2020 04:01:17 8.5 C 62 %
314 01-04-2020 04:11:17 8.4 C 62 %
315 01-04-2020 04:21:17 8.4 C 62 %
316 01-04-2020 04:31:18 8.4 C 62 %
317 01-04-2020 04:41:19 8.4 C 62 %
318 01-04-2020 04:51:17 8.4 C 62 %
319 01-04-2020 05:01:18 8.3 C 61 %
320 01-04-2020 05:11:19 8.3 C 61 %
321 01-04-2020 05:21:17 8.3 C 61 %
322 01-04-2020 05:31:18 8.3 C 61 %
323 01-04-2020 05:41:18 8.3 C 61 %
324 01-04-2020 05:51:17 8.2 C 61 %
325 01-04-2020 06:01:18 8.2 C 61 %
Sensor: Nr:Datum:Temp:Feuchte:
G-T/H 326 01-04-2020 06:11:18 8.2 C 61 %
327 01-04-2020 06:21:17 8.2 C 61 %
328 01-04-2020 06:31:17 8.1 C 61 %
329 01-04-2020 06:41:17 8.1 C 61 %
330 01-04-2020 06:51:17 8.1 C 61 %
331 01-04-2020 07:01:18 8.1 C 61 %
332 01-04-2020 07:11:19 8.1 C 61 %
333 01-04-2020 07:21:17 8.1 C 61 %
334 01-04-2020 07:31:18 8 C 61 %
335 01-04-2020 07:41:18 8 C 61 %
336 01-04-2020 07:51:17 8 C 61 %
337 01-04-2020 08:01:17 8 C 61 %
338 01-04-2020 08:11:17 8 C 61 %
339 01-04-2020 08:21:17 7.9 C 62 %
340 01-04-2020 08:31:17 7.9 C 62 %
341 01-04-2020 08:41:17 7.9 C 62 %
342 01-04-2020 08:51:17 7.9 C 62 %
343 01-04-2020 09:01:17 7.9 C 62 %
344 01-04-2020 09:11:17 7.9 C 62 %
345 01-04-2020 09:21:17 7.9 C 62 %
346 01-04-2020 09:31:17 7.8 C 62 %
347 01-04-2020 09:41:17 7.8 C 62 %
348 01-04-2020 09:51:17 7.8 C 62 %
349 01-04-2020 10:01:17 7.8 C 62 %
350 01-04-2020 10:11:17 7.8 C 62 %
Sensor: Nr:Datum:Temp:Feuchte:
G-T/H 351 01-04-2020 10:21:17 7.8 C 62 %
352 01-04-2020 10:31:18 7.8 C 62 %
353 01-04-2020 10:41:18 7.8 C 62 %
354 01-04-2020 10:51:17 7.8 C 62 %
355 01-04-2020 11:01:17 7.7 C 62 %
356 01-04-2020 11:11:17 7.8 C 62 %
357 01-04-2020 11:21:17 7.8 C 62 %
358 01-04-2020 11:31:17 7.7 C 62 %
359 01-04-2020 11:41:17 7.7 C 63 %
360 01-04-2020 11:51:17 7.8 C 63 %
361 01-04-2020 12:01:17 7.7 C 63 %
362 01-04-2020 12:11:18 7.8 C 63 %
363 01-04-2020 12:21:17 7.8 C 63 %
364 01-04-2020 12:31:17 7.8 C 63 %
365 01-04-2020 12:41:17 7.7 C 63 %
366 01-04-2020 12:51:17 7.7 C 63 %
367 01-04-2020 13:01:17 7.7 C 63 %
368 01-04-2020 13:11:17 7.8 C 63 %
369 01-04-2020 13:21:16 7.8 C 64 %
370 01-04-2020 13:31:17 7.8 C 64 %
371 01-04-2020 13:41:17 7.8 C 64 %
372 01-04-2020 13:51:17 7.8 C 64 %
373 01-04-2020 14:01:17 7.8 C 64 %
374 01-04-2020 14:11:17 7.9 C 64 %
375 01-04-2020 14:21:17 7.9 C 64 %
Sensor: Nr:Datum:Temp:Feuchte:
G-T/H 376 01-04-2020 14:31:16 7.9 C 64 %
377 01-04-2020 14:41:16 7.9 C 64 %
378 01-04-2020 14:51:17 7.9 C 64 %
379 01-04-2020 15:01:17 7.9 C 64 %
380 01-04-2020 15:11:17 8 C 63 %
381 01-04-2020 15:21:17 8 C 62 %
382 01-04-2020 15:31:16 8 C 62 %
383 01-04-2020 15:41:16 8 C 62 %
384 01-04-2020 15:51:17 8 C 62 %
385 01-04-2020 16:01:16 8.1 C 63 %
386 01-04-2020 16:11:16 8 C 63 %
387 01-04-2020 16:21:16 8.1 C 63 %
388 01-04-2020 16:31:17 8.1 C 63 %
389 01-04-2020 16:41:17 8.1 C 63 %
390 01-04-2020 16:51:16 8.1 C 63 %
391 01-04-2020 17:01:16 8.1 C 63 %
392 01-04-2020 17:11:16 8.2 C 63 %
393 01-04-2020 17:21:17 8.2 C 63 %
394 01-04-2020 17:31:17 8.2 C 63 %
395 01-04-2020 17:41:17 8.2 C 63 %
396 01-04-2020 17:51:17 8.2 C 63 %
397 01-04-2020 18:01:17 8.2 C 63 %
398 01-04-2020 18:11:17 8.2 C 63 %
399 01-04-2020 18:21:16 8.2 C 63 %
400 01-04-2020 18:31:17 8.3 C 63 %
Sensor: Nr:Datum:Temp:Feuchte:
G-T/H 401 01-04-2020 18:41:17 8.3 C 63 %
402 01-04-2020 18:51:16 8.3 C 63 %
403 01-04-2020 19:01:17 8.3 C 63 %
404 01-04-2020 19:11:17 8.4 C 63 %
405 01-04-2020 19:21:17 8.4 C 64 %
406 01-04-2020 19:31:17 8.4 C 64 %
407 01-04-2020 19:41:17 8.4 C 64 %
408 01-04-2020 19:51:16 8.4 C 64 %
409 01-04-2020 20:01:17 8.4 C 64 %
410 01-04-2020 20:11:17 8.4 C 64 %
411 01-04-2020 20:21:16 8.4 C 64 %
412 01-04-2020 20:31:16 8.5 C 64 %
413 01-04-2020 20:41:16 8.5 C 64 %
414 01-04-2020 20:51:16 8.5 C 64 %
415 01-04-2020 21:01:16 8.5 C 64 %
416 01-04-2020 21:11:16 8.5 C 64 %
417 01-04-2020 21:21:16 8.5 C 64 %
418 01-04-2020 21:31:16 8.5 C 64 %
419 01-04-2020 21:41:16 8.4 C 64 %
420 01-04-2020 21:51:16 8.5 C 64 %
421 01-04-2020 22:01:16 8.5 C 64 %
422 01-04-2020 22:11:16 8.5 C 64 %
423 01-04-2020 22:21:16 8.5 C 64 %
424 01-04-2020 22:31:16 8.5 C 64 %
425 01-04-2020 22:41:16 8.5 C 64 %
Sensor: Nr:Datum:Temp:Feuchte:
G-T/H 426 01-04-2020 22:51:16 8.5 C 64 %
427 01-04-2020 23:01:17 8.5 C 64 %
428 01-04-2020 23:11:17 8.5 C 64 %
429 01-04-2020 23:21:16 8.5 C 64 %
430 01-04-2020 23:31:16 8.4 C 64 %
431 01-04-2020 23:41:16 8.5 C 64 %
432 01-04-2020 23:51:16 8.5 C 64 %
433 02-04-2020 00:01:17 8.5 C 64 %
434 02-04-2020 00:11:17 8.5 C 64 %
435 02-04-2020 00:21:16 8.4 C 64 %
436 02-04-2020 00:31:17 8.4 C 64 %
437 02-04-2020 00:41:17 8.4 C 64 %
438 02-04-2020 00:51:16 8.4 C 64 %
439 02-04-2020 01:01:17 8.4 C 64 %
440 02-04-2020 01:11:17 8.4 C 64 %
441 02-04-2020 01:21:16 8.4 C 64 %
442 02-04-2020 01:31:17 8.4 C 64 %
443 02-04-2020 01:41:17 8.4 C 64 %
444 02-04-2020 01:51:16 8.4 C 64 %
445 02-04-2020 02:01:16 8.4 C 64 %
446 02-04-2020 02:11:16 8.4 C 64 %
447 02-04-2020 02:21:16 8.4 C 64 %
448 02-04-2020 02:31:17 8.3 C 64 %
449 02-04-2020 02:41:17 8.3 C 64 %
450 02-04-2020 02:51:17 8.3 C 63 %
Sensor: Nr:Datum:Temp:Feuchte:
G-T/H 451 02-04-2020 03:01:17 8.3 C 63 %
452 02-04-2020 03:11:17 8.3 C 63 %
453 02-04-2020 03:21:17 8.3 C 63 %
454 02-04-2020 03:31:17 8.3 C 63 %
455 02-04-2020 03:41:17 8.2 C 63 %
456 02-04-2020 03:51:18 8.2 C 63 %
457 02-04-2020 04:01:18 8.2 C 63 %
458 02-04-2020 04:11:18 8.2 C 63 %
459 02-04-2020 04:21:18 8.2 C 63 %
460 02-04-2020 04:31:17 8.2 C 63 %
461 02-04-2020 04:41:17 8.2 C 63 %
462 02-04-2020 04:51:17 8.2 C 63 %
463 02-04-2020 05:01:18 8.2 C 63 %
464 02-04-2020 05:11:18 8.1 C 63 %
465 02-04-2020 05:21:17 8.1 C 63 %
466 02-04-2020 05:31:18 8.1 C 63 %
467 02-04-2020 05:41:18 8.1 C 63 %
468 02-04-2020 05:51:17 8.1 C 63 %
469 02-04-2020 06:01:17 8.1 C 63 %
470 02-04-2020 06:11:17 8 C 63 %
471 02-04-2020 06:21:17 8 C 63 %
472 02-04-2020 06:31:17 8 C 63 %
473 02-04-2020 06:41:17 8 C 63 %
474 02-04-2020 06:51:17 8 C 62 %
475 02-04-2020 07:01:17 8 C 62 %
Sensor: Nr:Datum:Temp:Feuchte:
G-T/H 476 02-04-2020 07:11:17 8 C 62 %
477 02-04-2020 07:21:17 7.9 C 63 %
478 02-04-2020 07:31:17 7.9 C 63 %
479 02-04-2020 07:41:18 7.9 C 63 %
480 02-04-2020 07:51:17 7.9 C 63 %
481 02-04-2020 08:01:17 7.9 C 63 %
482 02-04-2020 08:11:18 7.9 C 63 %
483 02-04-2020 08:21:17 7.8 C 63 %
484 02-04-2020 08:31:17 7.9 C 63 %
485 02-04-2020 08:41:17 7.8 C 63 %
486 02-04-2020 08:51:17 7.8 C 63 %
487 02-04-2020 09:01:17 7.8 C 63 %
488 02-04-2020 09:11:17 7.8 C 63 %
489 02-04-2020 09:21:17 7.8 C 63 %
490 02-04-2020 09:31:17 7.8 C 63 %
491 02-04-2020 09:41:17 7.8 C 63 %
492 02-04-2020 09:51:18 7.8 C 63 %
493 02-04-2020 10:01:18 7.7 C 63 %
494 02-04-2020 10:11:18 7.7 C 63 %
495 02-04-2020 10:21:17 7.7 C 63 %
496 02-04-2020 10:31:17 7.7 C 63 %
497 02-04-2020 10:41:17 7.7 C 63 %
498 02-04-2020 10:51:17 7.6 C 64 %
499 02-04-2020 11:01:17 7.6 C 64 %
500 02-04-2020 11:11:17 7.7 C 64 %
Sensor: Nr:Datum:Temp:Feuchte:
G-T/H 501 02-04-2020 11:21:17 7.7 C 64 %
502 02-04-2020 11:31:18 7.6 C 64 %
503 02-04-2020 11:41:18 7.7 C 64 %
504 02-04-2020 11:51:17 7.7 C 64 %
505 02-04-2020 12:01:17 7.7 C 64 %
506 02-04-2020 12:11:17 7.7 C 65 %
507 02-04-2020 12:21:17 7.7 C 65 %
508 02-04-2020 12:31:18 7.7 C 65 %
509 02-04-2020 12:41:18 7.7 C 65 %
510 02-04-2020 12:51:17 7.8 C 65 %
511 02-04-2020 13:01:17 7.8 C 65 %
512 02-04-2020 13:11:18 7.8 C 65 %
513 02-04-2020 13:21:17 7.8 C 65 %
514 02-04-2020 13:31:17 7.8 C 65 %
515 02-04-2020 13:41:17 7.8 C 65 %
516 02-04-2020 13:51:17 7.8 C 65 %
517 02-04-2020 14:01:17 7.9 C 65 %
518 02-04-2020 14:11:17 7.9 C 65 %
519 02-04-2020 14:21:17 7.9 C 65 %
520 02-04-2020 14:31:18 8 C 65 %
521 02-04-2020 14:41:18 7.9 C 66 %
522 02-04-2020 14:51:17 8 C 65 %
523 02-04-2020 15:01:18 8 C 65 %
524 02-04-2020 15:11:18 8 C 65 %
525 02-04-2020 15:21:17 8 C 65 %
Sensor: Nr:Datum:Temp:Feuchte:
G-T/H 526 02-04-2020 15:31:18 8.1 C 65 %
527 02-04-2020 15:41:18 8.1 C 65 %
528 02-04-2020 15:51:17 8.1 C 65 %
529 02-04-2020 16:01:17 8.1 C 65 %
530 02-04-2020 16:11:17 8.1 C 65 %
531 02-04-2020 16:21:17 8.1 C 65 %
532 02-04-2020 16:31:18 8.2 C 65 %
533 02-04-2020 16:41:18 8.2 C 65 %
534 02-04-2020 16:51:17 8.2 C 65 %
535 02-04-2020 17:01:17 8.3 C 65 %
536 02-04-2020 17:11:17 8.3 C 65 %
537 02-04-2020 17:21:17 8.3 C 65 %
538 02-04-2020 17:31:18 8.3 C 65 %
539 02-04-2020 17:41:18 8.3 C 65 %
540 02-04-2020 17:51:17 8.4 C 65 %
541 02-04-2020 18:01:17 8.4 C 65 %
542 02-04-2020 18:11:17 8.4 C 65 %
543 02-04-2020 18:21:17 8.4 C 65 %
544 02-04-2020 18:31:17 8.4 C 65 %
545 02-04-2020 18:41:17 8.5 C 65 %
546 02-04-2020 18:51:17 8.5 C 65 %
547 02-04-2020 19:01:17 8.5 C 65 %
548 02-04-2020 19:11:17 8.5 C 65 %
549 02-04-2020 19:21:17 8.6 C 65 %
550 02-04-2020 19:31:17 8.6 C 66 %
Sensor: Nr:Datum:Temp:Feuchte:
G-T/H 551 02-04-2020 19:41:17 8.6 C 66 %
552 02-04-2020 19:51:17 8.6 C 66 %
553 02-04-2020 20:01:17 8.6 C 66 %
554 02-04-2020 20:11:17 8.6 C 66 %
555 02-04-2020 20:21:17 8.6 C 66 %
556 02-04-2020 20:31:17 8.6 C 66 %
557 02-04-2020 20:41:17 8.6 C 66 %
558 02-04-2020 20:51:17 8.6 C 66 %
559 02-04-2020 21:01:17 8.6 C 66 %
560 02-04-2020 21:11:17 8.7 C 66 %
561 02-04-2020 21:21:17 8.7 C 66 %
562 02-04-2020 21:31:18 8.7 C 66 %
563 02-04-2020 21:41:18 8.7 C 66 %
564 02-04-2020 21:51:17 8.7 C 66 %
565 02-04-2020 22:01:17 8.7 C 66 %
566 02-04-2020 22:11:17 8.7 C 67 %
567 02-04-2020 22:21:17 8.7 C 67 %
568 02-04-2020 22:31:18 8.7 C 67 %
569 02-04-2020 22:41:18 8.7 C 67 %
570 02-04-2020 22:51:17 8.7 C 67 %
571 02-04-2020 23:01:17 8.7 C 67 %
572 02-04-2020 23:11:17 8.7 C 67 %
573 02-04-2020 23:21:17 8.7 C 67 %
574 02-04-2020 23:31:18 8.7 C 67 %
575 02-04-2020 23:41:18 8.7 C 67 %
Sensor: Nr:Datum:Temp:Feuchte:
G-T/H 576 02-04-2020 23:51:17 8.7 C 67 %
577 03-04-2020 00:01:18 8.7 C 67 %
578 03-04-2020 00:11:18 8.7 C 67 %
579 03-04-2020 00:21:17 8.7 C 67 %
580 03-04-2020 00:31:17 8.7 C 67 %
581 03-04-2020 00:41:17 8.7 C 67 %
582 03-04-2020 00:51:17 8.7 C 67 %
583 03-04-2020 01:01:18 8.7 C 67 %
584 03-04-2020 01:11:18 8.7 C 67 %
585 03-04-2020 01:21:17 8.7 C 67 %
586 03-04-2020 01:31:18 8.7 C 67 %
587 03-04-2020 01:41:18 8.9 C 67 %
588 03-04-2020 01:51:17 8.7 C 66 %
589 03-04-2020 02:01:18 8.7 C 66 %
590 03-04-2020 02:11:18 8.7 C 66 %
591 03-04-2020 02:21:18 8.7 C 66 %
592 03-04-2020 02:31:18 8.7 C 66 %
593 03-04-2020 02:41:18 8.7 C 66 %
594 03-04-2020 02:51:17 8.7 C 66 %
595 03-04-2020 03:01:18 8.7 C 66 %
596 03-04-2020 03:11:18 8.7 C 66 %
597 03-04-2020 03:21:17 8.7 C 66 %
598 03-04-2020 03:31:17 8.7 C 66 %
599 03-04-2020 03:41:17 8.7 C 67 %
600 03-04-2020 03:51:17 8.7 C 67 %
Sensor: Nr:Datum:Temp:Feuchte:
G-T/H 601 03-04-2020 04:01:17 8.7 C 67 %
602 03-04-2020 04:11:17 8.7 C 67 %
603 03-04-2020 04:21:17 8.7 C 67 %
604 03-04-2020 04:31:18 8.7 C 67 %
605 03-04-2020 04:41:18 8.7 C 67 %
606 03-04-2020 04:51:18 8.7 C 67 %
607 03-04-2020 05:01:18 8.7 C 67 %
608 03-04-2020 05:11:18 8.7 C 67 %
609 03-04-2020 05:21:17 8.7 C 67 %
610 03-04-2020 05:31:17 8.7 C 67 %
611 03-04-2020 05:41:17 8.7 C 67 %
612 03-04-2020 05:51:17 8.7 C 67 %
613 03-04-2020 06:01:18 8.7 C 67 %
614 03-04-2020 06:11:18 8.7 C 67 %
615 03-04-2020 06:21:17 8.7 C 67 %
616 03-04-2020 06:31:17 8.6 C 67 %
617 03-04-2020 06:41:17 8.6 C 67 %
618 03-04-2020 06:51:17 8.7 C 67 %
619 03-04-2020 07:01:17 8.6 C 67 %
620 03-04-2020 07:11:17 8.6 C 67 %
621 03-04-2020 07:21:18 8.6 C 67 %
622 03-04-2020 07:31:17 8.6 C 67 %
623 03-04-2020 07:41:17 8.6 C 67 %
624 03-04-2020 07:51:17 8.6 C 67 %
625 03-04-2020 08:01:17 8.6 C 67 %
Sensor: Nr:Datum:Temp:Feuchte:
G-T/H 626 03-04-2020 08:11:17 8.6 C 67 %
627 03-04-2020 08:21:18 8.6 C 67 %
628 03-04-2020 08:31:17 8.6 C 67 %
629 03-04-2020 08:41:17 8.7 C 67 %
630 03-04-2020 08:51:18 8.7 C 67 %
631 03-04-2020 09:01:17 8.7 C 67 %
632 03-04-2020 09:11:17 8.7 C 67 %
633 03-04-2020 09:21:18 8.7 C 67 %
634 03-04-2020 09:31:18 8.7 C 67 %
635 03-04-2020 09:41:18 8.7 C 67 %
636 03-04-2020 09:51:17 8.7 C 67 %
637 03-04-2020 10:01:18 8.7 C 68 %
638 03-04-2020 10:11:18 8.7 C 68 %
639 03-04-2020 10:21:17 8.7 C 68 %
640 03-04-2020 10:31:18 8.7 C 68 %
641 03-04-2020 10:41:18 8.7 C 68 %
642 03-04-2020 10:51:17 8.7 C 68 %
643 03-04-2020 11:01:17 8.7 C 68 %
644 03-04-2020 11:11:17 8.7 C 68 %
645 03-04-2020 11:21:17 8.7 C 68 %
646 03-04-2020 11:31:17 8.8 C 68 %
647 03-04-2020 11:41:17 8.7 C 68 %
648 03-04-2020 11:51:17 8.8 C 68 %
649 03-04-2020 12:01:17 8.8 C 68 %
650 03-04-2020 12:11:17 8.8 C 68 %
Sensor: Nr:Datum:Temp:Feuchte:
G-T/H 651 03-04-2020 12:21:17 8.8 C 68 %
652 03-04-2020 12:31:17 8.9 C 68 %
653 03-04-2020 12:41:18 8.9 C 68 %
654 03-04-2020 12:51:17 8.9 C 68 %
655 03-04-2020 13:01:18 8.9 C 68 %
656 03-04-2020 13:11:18 9 C 67 %
657 03-04-2020 13:21:17 9.1 C 67 %
658 03-04-2020 13:31:17 9.2 C 66 %
659 03-04-2020 13:41:17 9.3 C 65 %
660 03-04-2020 13:51:17 9.4 C 64 %
661 03-04-2020 14:01:18 9.4 C 63 %
662 03-04-2020 14:11:18 9.5 C 62 %
663 03-04-2020 14:21:17 9.5 C 62 %
664 03-04-2020 14:31:17 9.5 C 61 %
665 03-04-2020 14:41:18 9.6 C 61 %
666 03-04-2020 14:51:17 9.6 C 61 %
667 03-04-2020 15:01:17 9.6 C 60 %
668 03-04-2020 15:11:17 9.7 C 60 %
669 03-04-2020 15:21:18 9.7 C 59 %
670 03-04-2020 15:31:17 9.7 C 59 %
671 03-04-2020 15:41:17 9.8 C 59 %
672 03-04-2020 15:51:17 9.8 C 59 %
673 03-04-2020 16:01:17 9.9 C 59 %
674 03-04-2020 16:11:17 9.9 C 58 %
675 03-04-2020 16:21:17 10 C 57 %
Sensor: Nr:Datum:Temp:Feuchte:
G-T/H 676 03-04-2020 16:31:17 10 C 56 %
677 03-04-2020 16:41:17 10.1 C 56 %
678 03-04-2020 16:51:17 10.1 C 55 %
679 03-04-2020 17:01:17 10.1 C 55 %
680 03-04-2020 17:11:17 10.1 C 55 %
681 03-04-2020 17:21:17 10.1 C 54 %
682 03-04-2020 17:31:17 10.1 C 54 %
683 03-04-2020 17:41:17 10.2 C 54 %
684 03-04-2020 17:51:17 10.2 C 54 %
685 03-04-2020 18:01:17 10.1 C 54 %
686 03-04-2020 18:11:17 10.1 C 53 %
687 03-04-2020 18:21:17 10.2 C 53 %
688 03-04-2020 18:31:18 10.2 C 53 %
689 03-04-2020 18:41:18 10.2 C 53 %
690 03-04-2020 18:51:17 10.1 C 53 %
691 03-04-2020 19:01:18 10.1 C 53 %
692 03-04-2020 19:11:18 10.1 C 54 %
693 03-04-2020 19:21:17 10.2 C 54 %
694 03-04-2020 19:31:17 10.1 C 54 %
695 03-04-2020 19:41:17 10.1 C 53 %
696 03-04-2020 19:51:17 10.1 C 53 %
697 03-04-2020 20:01:17 10.1 C 53 %
698 03-04-2020 20:11:17 10.1 C 52 %
699 03-04-2020 20:21:17 10 C 52 %
700 03-04-2020 20:31:18 10 C 51 %
Sensor: Nr:Datum:Temp:Feuchte:
G-T/H 701 03-04-2020 20:41:18 10 C 50 %
702 03-04-2020 20:51:18 10 C 50 %
703 03-04-2020 21:01:17 10 C 50 %
704 03-04-2020 21:11:17 9.9 C 50 %
705 03-04-2020 21:21:17 9.9 C 49 %
706 03-04-2020 21:31:17 9.8 C 48 %
707 03-04-2020 21:41:17 9.8 C 48 %
708 03-04-2020 21:51:17 9.8 C 48 %
709 03-04-2020 22:01:17 9.7 C 48 %
710 03-04-2020 22:11:17 9.7 C 47 %
711 03-04-2020 22:21:17 9.5 C 47 %
712 03-04-2020 22:31:18 9.4 C 47 %
713 03-04-2020 22:41:18 9.2 C 47 %
714 03-04-2020 22:51:17 9.1 C 47 %
715 03-04-2020 23:01:17 9.1 C 47 %
716 03-04-2020 23:11:18 9.2 C 47 %
717 03-04-2020 23:21:18 9.3 C 47 %
718 03-04-2020 23:31:17 8.9 C 47 %
719 03-04-2020 23:41:18 8.9 C 47 %
720 03-04-2020 23:51:17 8.7 C 47 %

Legende:
   Min
   Max


Maximal/Minimal-Werte vom 30.03.2020 - 03.04.2020

Sensor Min Max Avg
Temp
(Aussen-T/F)
-4.7 °C
01-04-2020  07:11:19
21.3 °C
01-04-2020  16:31:17
5.21 °C
Feuchte
(Aussen-T/F)
20 %
30-03-2020  11:10:18
45 %
31-03-2020  06:10:18
29.89 %
Temp
(G-T/H)
7.6 °C
02-04-2020  10:51:17
10.2 °C
03-04-2020  17:41:17
8.56 °C
Feuchte
(G-T/H)
47 %
03-04-2020  22:11:17
68 %
03-04-2020  10:01:18
62.14 %

Die Daten stammen von einer Davis Vantage Pro 2 Wetter-Station und werden unter Linux mit der Software wview2wettercgi und aufbereitet. Alle Angaben erfolgen ohne Gewähr für ihre Vollständigkeit oder Richtigkeit.
Kontakt: Rainer Krienke krienke@uni-koblenz.de . Meine Webseiten an der Uni Koblenz oder privat.
Version: $Revision: 0.78 $